Dubai, UAE

1:02 AM +04 on November 24, 2017 (GMT +0400)
Dubai

Weather History for 41194 - March, 2013

Change the Weather History Date:

Sunday, March 3, 2013

  Actual Average Record
Temperature  
Mean Temperature 78 °F -  
Max Temperature 87 °F 82 °F - ()
Min Temperature 69 °F 65 °F - ()
Cooling Degree Days 13    
Growing Degree Days 28 (Base 50)    
Moisture  
Dew Point 59 °F    
Average Humidity 53    
Maximum Humidity 69    
Minimum Humidity 29    
Precipitation  
Precipitation 0.00 in 0.03 in - ()
Sea Level Pressure  
Sea Level Pressure 30.06 in    
Wind  
Wind Speed 5 mph ()    
Max Wind Speed 12 mph    
Max Gust Speed -    
Visibility 5.9 miles    
Events      
T = Trace of Precipitation, MM = Missing Value Source: Averaged Metar Reports

Daily Weather History Graph

Daily Weather History Graph

Search for Another Location

Airport or City:

Trip Planner

Search our weather history database for the weather conditions in past years. The results will help you decide how hot, cold, wet, or windy it might be!

Date:

Astronomy

Mar. 03, 2013 Rise Set
Actual Time 6:39 AM +04 6:21 PM +04
Civil Twilight 6:16 AM +04 6:44 PM +04
Nautical Twilight 5:50 AM +04 7:11 PM +04
Astronomical Twilight 5:23 AM +04 7:37 PM +04
Moon 11:59 PM +04 (3/3) 10:13 AM +04 (3/3)
Length of Visible Light 12h 27m
Length of Day
11h 41m
Waning Gibbous, 68% of the Moon is Illuminated
Mar 3
Waning Gibbous
Mar 5
Last Quarter
Mar 11
New
Mar 19
First Quarter
Mar 27
Full

Hourly Weather History & Observations

Time (+04) Temp. Heat Index Dew Point Humidity Pressure Visibility Wind Dir Wind Speed Gust Speed Precip Events Conditions
12:00 AM 75.2 °F - 57.2 °F 53% 30.06 in - ENE 4.6 mph - N/A   Clear
1:00 AM 74 °F - 56 °F 43% 30.09 in 6 mi NE 5.8 mph - -   Clear
1:00 AM 73.4 °F - 55.4 °F 53% 30.06 in - NE 5.8 mph - N/A   Clear
2:00 AM 73.4 °F - 57.2 °F 57% 30.06 in - East 3.5 mph - N/A   Clear
3:00 AM 73.4 °F - 59.0 °F 61% 30.06 in - NNE 3.5 mph - N/A   Clear
4:00 AM 72 °F - 59 °F 54% 30.06 in 6 mi East 4.6 mph - -   Clear
4:00 AM 71.6 °F - 59.0 °F 64% 30.04 in - East 4.6 mph - N/A   Clear
5:00 AM 71.6 °F - 59.0 °F 64% 30.04 in - ESE 4.6 mph - N/A   Clear
6:00 AM 69.8 °F - 57.2 °F 64% 30.06 in - East 4.6 mph - N/A   Clear
7:00 AM 69 °F - 56 °F 53% 30.10 in 6 mi ENE 3.5 mph - -   Clear
7:00 AM 69.8 °F - 55.4 °F 60% 30.09 in - ENE 3.5 mph - N/A   Clear
8:00 AM 71.6 °F - 59.0 °F 64% 30.09 in - ENE 3.5 mph - N/A   Clear
9:00 AM 75.2 °F - 62.6 °F 65% 30.12 in 5.0 mi ESE 5.8 mph - N/A   Unknown
10:00 AM 77.0 °F - 62.6 °F 61% 30.12 in - SE 6.9 mph - N/A   Clear
11:00 AM 84.2 °F - 51.8 °F 33% 30.12 in - SSE 6.9 mph - N/A   Clear
12:00 PM 86.0 °F - 50.0 °F 29% 30.09 in - Variable 5.8 mph - N/A   Clear
1:00 PM 83 °F - 61 °F 37% 30.07 in 6 mi NNW 8.1 mph - -  
1:00 PM 84.2 °F 84.4 °F 60.8 °F 45% 30.06 in - NNW 8.1 mph - N/A   Clear
2:00 PM 84.2 °F 83.5 °F 57.2 °F 40% 30.04 in - NNW 9.2 mph - N/A   Clear
3:00 PM 84.2 °F 83.8 °F 59.0 °F 42% 30.01 in - NNW 10.4 mph - N/A   Clear
4:00 PM 84.2 °F - 51.8 °F 33% 30.01 in - NW 9.2 mph - N/A   Clear
5:00 PM 82.4 °F 82.9 °F 60.8 °F 48% 30.01 in - NNW 11.5 mph - N/A   Clear
6:00 PM 80.6 °F 82.3 °F 64.4 °F 58% 30.04 in - NNW 8.1 mph - N/A   Clear
7:00 PM 77 °F - 63 °F 54% 30.04 in 6 mi NNW 9.2 mph - -  
7:00 PM 77.0 °F - 62.6 °F 61% 30.04 in - NNW 9.2 mph - N/A   Clear
8:00 PM 77.0 °F - 64.4 °F 65% 30.06 in - NNW 8.1 mph - N/A   Clear
9:00 PM 75.2 °F - 64.4 °F 69% 30.06 in - NNW 6.9 mph - N/A   Clear
10:00 PM 76 °F - 58 °F 43% 30.09 in 6 mi 3.5 mph - -  
10:00 PM 77.0 °F - 57.2 °F 50% 30.06 in - NNE 3.5 mph - N/A   Clear
11:00 PM 75.2 °F - 60.8 °F 61% 30.06 in - ENE 4.6 mph - N/A   Clear